Weather History for Atqasuk Edward Burnell Sr Mem, AK

Change the Weather History Date:

Wednesday, August 20, 2014

  Actual Average (PABR) Record (PABR)
Temperature  
Mean Temperature 48 °F 39 °F  
Max Temperature 55 °F 43 °F 65 °F (1965)
Min Temperature 42 °F 34 °F 25 °F (1981)
Degree Days  
Heating Degree Days 16 26  
Month to date heating degree days 507  
Since 1 June heating degree days 2134  
Since 1 July heating degree days 1254  
Cooling Degree Days 0    
Month to date cooling degree days  
Year to date cooling degree days  
Since 1 June cooling degree days  
Moisture  
Dew Point 46 °F    
Average Humidity 89    
Maximum Humidity 100    
Minimum Humidity 77    
Precipitation  
Precipitation 0.00 in 0.04 in 0.48 in (1955)
Month to date precipitation 0.69  
Year to date precipitation 2.69  
Snow  
Snow 0.00 in 0.00 in 0.40 in (1938)
Month to date snowfall 0.4  
Since 1 June snowfall 1.3  
Since 1 July snowfall 0.6  
Snow Depth -    
Sea Level Pressure  
Sea Level Pressure 30.10 in    
Wind  
Wind Speed 7 mph (SE)    
Max Wind Speed 13 mph    
Max Gust Speed -    
Visibility 10 miles    
Events      
T = Trace of Precipitation, MM = Missing Value Source: NWS Daily Summary

Daily Weather History Graph

Daily Weather History Graph

Search for Another Location

Airport:

Trip Planner

Search our weather history database for the weather conditions in past years. The results will help you decide how hot, cold, wet, or windy it might be!

Date:

Astronomy

Aug. 20, 2014 Rise Set
Actual Time 5:47 AM AKDT 11:14 PM AKDT
Civil Twilight 3:53 AM AKDT 1:02 AM AKDT
Nautical Twilight Sun does not rise Sun does not rise
Astronomical Twilight Sun does not rise Sun does not rise
Moon No Moon Rise 9:38 PM AKDT (8/20)
Length of Visible Light 21h 08m
Length of Day
17h 27m
Waning Crescent, 19% of the Moon is Illuminated
Aug 20
Waning Crescent
Aug 25
New
Sep 2
First Quarter
Sep 8
Full
Sep 15
Last Quarter

Hourly Weather History & Observations

Time (AKDT) Temp. Windchill Dew Point Humidity Pressure Visibility Wind Dir Wind Speed Gust Speed Precip Events Conditions
12:56 AM 46.9 °F - 43.9 °F 89% 30.08 in 10.0 mi ESE 3.5 mph - N/A   Overcast
1:56 AM 45.9 °F 43.6 °F 43.9 °F 93% 30.09 in 10.0 mi East 4.6 mph - N/A   Overcast
2:56 AM 45.9 °F 41.7 °F 43.9 °F 93% 30.09 in 10.0 mi SSE 8.1 mph - N/A   Overcast
3:20 AM 46.4 °F 42.4 °F 44.6 °F 93% 30.08 in 10.0 mi SSE 8.1 mph - N/A   Overcast
3:56 AM 45.9 °F 43.6 °F 43.9 °F 93% 30.10 in 10.0 mi SE 4.6 mph - N/A   Overcast
4:56 AM 45.0 °F 41.8 °F 43.0 °F 93% 30.09 in 10.0 mi SSE 5.8 mph - N/A   Overcast
5:41 AM 44.6 °F 39.2 °F 42.8 °F 93% 30.08 in 10.0 mi SSE 10.4 mph - N/A   Overcast
5:56 AM 43.9 °F 39.3 °F 43.0 °F 97% 30.09 in 10.0 mi SSE 8.1 mph - N/A   Overcast
6:10 AM 42.8 °F 39.3 °F 42.8 °F 100% 30.08 in 10.0 mi SSE 5.8 mph - N/A   Overcast
6:56 AM 43.9 °F 39.3 °F 43.0 °F 97% 30.10 in 10.0 mi SE 8.1 mph - N/A   Overcast
7:56 AM 45.0 °F 41.2 °F 43.0 °F 93% 30.10 in 10.0 mi SSE 6.9 mph - N/A   Overcast
8:56 AM 45.0 °F 39.7 °F 43.9 °F 96% 30.11 in 10.0 mi SE 10.4 mph - N/A   Overcast
9:56 AM 45.9 °F 41.7 °F 43.0 °F 90% 30.11 in 10.0 mi ESE 8.1 mph - N/A   Overcast
10:56 AM 45.0 °F 39.3 °F 43.9 °F 96% 30.11 in 10.0 mi SE 11.5 mph - N/A   Overcast
11:56 AM 46.9 °F - 43.9 °F 89% 30.11 in 10.0 mi SSE 10.4 mph - N/A   Overcast
12:56 PM 46.9 °F - 45.0 °F 93% 30.11 in 10.0 mi SE 10.4 mph - N/A   Overcast
1:56 PM 47.8 °F - 45.9 °F 93% 30.11 in 10.0 mi SE 10.4 mph - N/A   Overcast
2:35 PM 48.2 °F - 46.4 °F 93% 30.10 in 10.0 mi SE 9.2 mph - N/A   Overcast
2:56 PM 50.0 °F - 45.9 °F 86% 30.11 in 10.0 mi SE 9.2 mph - N/A   Overcast
3:56 PM 52.0 °F - 46.9 °F 83% 30.10 in 10.0 mi ESE 6.9 mph - N/A   Overcast
4:23 PM 53.6 °F - 48.2 °F 82% 30.08 in 10.0 mi ESE 8.1 mph - N/A   Overcast
4:56 PM 54.0 °F - 47.8 °F 80% 30.09 in 10.0 mi ESE 10.4 mph - N/A   Overcast
5:56 PM 54.0 °F - 47.8 °F 80% 30.09 in 10.0 mi ESE 6.9 mph - N/A   Mostly Cloudy
6:09 PM 55.4 °F - 48.2 °F 77% 30.07 in 10.0 mi SE 8.1 mph - N/A   Partly Cloudy
6:56 PM 54.9 °F - 48.9 °F 80% 30.09 in 10.0 mi ESE 9.2 mph - N/A   Scattered Clouds
7:56 PM 54.9 °F - 48.9 °F 80% 30.09 in 10.0 mi ESE 8.1 mph - N/A   Clear
8:56 PM 52.9 °F - 47.8 °F 83% 30.09 in 10.0 mi ESE 12.7 mph - N/A   Scattered Clouds
9:39 PM 53.6 °F - 48.2 °F 82% 30.09 in 10.0 mi ESE 8.1 mph - N/A   Mostly Cloudy
9:56 PM 52.9 °F - 47.8 °F 83% 30.10 in 10.0 mi East 10.4 mph - N/A   Overcast
10:56 PM 50.9 °F - 46.9 °F 86% 30.11 in 10.0 mi ESE 8.1 mph - N/A   Overcast
11:56 PM 50.9 °F - 47.8 °F 89% 30.12 in 10.0 mi ESE 5.8 mph - N/A   Overcast